{"data":{"norad_id":53978,"epoch":"2026-05-24T17:37:28.884576Z","epoch_age_seconds":98248,"freshness":"FRESH","line1":"1 53978U 22125Q   26144.73436209  .00002759  00000+0  19136-3 0  9990","line2":"2 53978  53.2135 237.6566 0001533  93.5947 266.5221 15.08840633200876","mean_motion":15.08840633,"eccentricity":0.0001533,"inclination_deg":53.2135,"raan_deg":237.6566,"arg_perigee_deg":93.5947,"mean_anomaly_deg":266.5221,"bstar":0.00019136,"rev_number":20087,"period_min":95.437514639096,"perigee_km":538.68094337,"apogee_km":540.80196490404,"semimajor_km":6917.878454137,"source":"CELESTRAK","updated_at":"2026-05-25T13:38:17.619655Z"}}